Location: Misciano
(43.5000°N, 11.9500°E)
Time: 17:01:58
(UTC+00:00)

Aureole 1 Rocket - Pass Details

Date: 13 August 2020
Orbit: 378 x 1379 km, 73.9° (Epoch: 25 September)

Event Time Altitude Azimuth Distance (km) Brightness Sun altitude
Rises 19:11:40 0° 188° (S) 3,672 6.8 -9.6°
Reaches altitude 10° 19:14:00 10° 186° (S) 2,856 6.2 -10.0°
Maximum altitude 19:20:52 69° 105° (ESE) 1,302 4.5 -11.0°
Drops below altitude 10° 19:29:08 10° 25° (NNE) 3,412 6.9 -12.3°
Sets 19:32:10 0° 23° (NNE) 4,427 7.6 -12.7°
